Location: Newark
(37.9500°N, 13.4167°E)
Time: 05:03:43
(UTC+00:00)

Envisat - Visible Passes

Search period start: 22 January 2020 00:00
Search period end: 01 February 2020 00:00
Orbit: 764 x 766 km, 98.1° (Epoch: 21 January)

Date Brightness Start Highest point End Pass type
(mag) Time Alt. Az. Time Alt. Az. Time Alt. Az.
22 Jan 5.7 04:48:04 10° NE 04:51:53 21° E 04:55:41 10° SE visible
22 Jan 4.6 17:39:10 10° SSW 17:43:48 36° W 17:48:30 10° NNW visible
23 Jan 3.1 17:01:53 10° SSE 17:06:58 85° WSW 17:12:04 10° NNW visible
24 Jan 4.7 05:12:48 10° NNE 05:17:31 38° E 05:22:13 10° SSE visible
24 Jan 5.7 18:05:44 10° SW 18:09:28 20° W 18:13:13 10° NW visible
25 Jan 6.1 04:37:19 10° NE 04:40:30 16° E 04:43:39 10° SE visible
25 Jan 4.1 17:27:37 10° S 17:32:28 47° W 17:37:22 10° NNW visible
26 Jan 3.4 05:38:00 10° NNE 05:43:05 69° ESE 05:48:07 10° S visible
26 Jan 3.0 16:50:38 10° SSE 16:55:41 75° ENE 17:00:46 10° N visible
26 Jan 6.4 18:33:57 10° WSW 18:35:12 11° W 18:36:29 10° WNW visible
27 Jan 5.2 05:01:46 10° NE 05:06:11 30° E 05:10:34 10° SSE visible
27 Jan 5.3 17:53:53 10° SSW 17:58:05 26° W 18:02:19 10° NW visible
28 Jan 6.3 04:26:55 10° ENE 04:29:05 13° E 04:31:15 10° ESE visible
28 Jan 3.6 17:16:10 10° S 17:21:10 61° W 17:26:12 10° NNW visible
29 Jan 3.9 05:26:47 10° NNE 05:31:46 53° E 05:36:43 10° S visible
29 Jan 6.2 18:21:05 10° SW 18:23:47 14° W 18:26:31 10° WNW visible
30 Jan 5.6 04:50:48 10° NE 04:54:48 23° E 04:58:48 10° SSE visible
30 Jan 4.9 17:42:11 10° SSW 17:46:44 33° W 17:51:18 10° NNW visible
31 Jan 3.2 17:04:47 10° S 17:09:51 78° WSW 17:14:58 10° NNW visible
